Location: Ansan
(43.6898°N, 0.7731°E)
Time: 07:29:45
(UTC+00:00)

BREEZE-M DEB (TANK) - Pass Details

Date: 15 May 2026
Orbit: 262 x 12018 km, 49.5° (Epoch: 6 June)

Event Time Altitude Azimuth Distance (km) Brightness Sun altitude
Rises 21:13:29 0° 273° (W) 3,242 6.9 -17.4°
Reaches altitude 10° 21:16:54 10° 287° (WNW) 1,579 5.5 -17.8°
Maximum altitude 21:19:23 24° 346° (NNW) 711 3.7 -18.1°
Enters shadow 21:20:43 14° 38° (NE) 923 3.6 -18.2°
